Weather History for Jefferson City, MO

Change the Weather History Date:

Thursday, July 18, 2013

  Actual Average Record
Temperature  
Mean Temperature 84 °F -  
Max Temperature 95 °F 91 °F 111 °F (1954)
Min Temperature 73 °F 67 °F 54 °F (1967)
Cooling Degree Days 19    
Growing Degree Days 34 (Base 50)    
Moisture  
Dew Point 69 °F    
Average Humidity 60    
Maximum Humidity 90    
Minimum Humidity 38    
Precipitation  
Precipitation 0.00 in - - ()
Sea Level Pressure  
Sea Level Pressure 30.08 in    
Wind  
Wind Speed 2 mph (ESE)    
Max Wind Speed 12 mph    
Max Gust Speed 18 mph    
Visibility 10 miles    
Events Thunderstorm    
Averages and records for this station are not official NWS values.
T = Trace of Precipitation, MM = Missing Value Source: NWS Daily Summary

Daily Weather History Graph

Daily Weather History Graph

Search for Another Location

Airport:

Trip Planner

Search our weather history database for the weather conditions in past years. The results will help you decide how hot, cold, wet, or windy it might be!

Date:

Astronomy

Jul. 18, 2013 Rise Set
Actual Time 5:58 AM CDT 8:30 PM CDT
Civil Twilight 5:28 AM CDT 9:01 PM CDT
Nautical Twilight 4:50 AM CDT 9:39 PM CDT
Astronomical Twilight 4:07 AM CDT 10:21 PM CDT
Moon 4:28 PM CDT (7/18) 1:48 AM CDT (7/18)
Length of Visible Light 15h 32m
Length of Day
14h 31m
Waxing Gibbous, 77% of the Moon is Illuminated
Jul 18
Waxing Gibbous
Jul 22
Full
Jul 29
Last Quarter
Aug 6
New
Aug 14
First Quarter

Hourly Weather History & Observations

Time (CDT) Temp. Heat Index Dew Point Humidity Pressure Visibility Wind Dir Wind Speed Gust Speed Precip Events Conditions
12:53 AM 79.0 °F - 72.0 °F 79% 30.18 in 10.0 mi Calm Calm - N/A   Clear
1:53 AM 77.0 °F - 72.0 °F 84% 30.17 in 10.0 mi Calm Calm - N/A   Clear
2:53 AM 75.9 °F - 71.1 °F 85% 30.16 in 10.0 mi ESE 3.5 mph - N/A   Clear
3:53 AM 75.9 °F - 71.1 °F 85% 30.15 in 10.0 mi Calm Calm - N/A   Clear
4:53 AM 73.9 °F - 70.0 °F 87% 30.14 in 10.0 mi Calm Calm - N/A   Clear
5:53 AM 73.0 °F - 70.0 °F 90% 30.14 in 10.0 mi Calm Calm - N/A   Clear
6:53 AM 73.9 °F - 70.0 °F 87% 30.14 in 10.0 mi Calm Calm - N/A   Clear
7:53 AM 78.1 °F - 71.1 °F 79% 30.15 in 10.0 mi Calm Calm - N/A   Clear
8:53 AM 84.0 °F 87.0 °F 68.0 °F 58% 30.14 in 10.0 mi SSW 3.5 mph - N/A   Clear
9:53 AM 87.1 °F 90.6 °F 68.0 °F 53% 30.13 in 10.0 mi South 3.5 mph - N/A   Clear
10:53 AM 90.0 °F 93.6 °F 68.0 °F 48% 30.13 in 10.0 mi Calm Calm - N/A   Clear
11:53 AM 91.0 °F 96.6 °F 70.0 °F 50% 30.12 in 10.0 mi ESE 6.9 mph - N/A   Clear
12:53 PM 93.0 °F 95.9 °F 66.0 °F 41% 30.09 in 10.0 mi East 5.8 mph - N/A   Clear
1:18 PM 93.2 °F 94.9 °F 64.4 °F 38% 30.13 in 10.0 mi Variable 4.6 mph - N/A Thunderstorm Thunderstorm
1:33 PM 91.4 °F 94.0 °F 66.2 °F 43% 30.12 in 10.0 mi WNW 11.5 mph 18.4 mph N/A Thunderstorm Partly Cloudy
1:53 PM 89.1 °F 92.1 °F 66.9 °F 48% 30.07 in 10.0 mi NW 8.1 mph - N/A Thunderstorm Thunderstorm
2:08 PM 89.6 °F 93.4 °F 68.0 °F 49% 30.10 in 10.0 mi NW 8.1 mph - N/A   Scattered Clouds
2:53 PM 95.0 °F 97.9 °F 66.0 °F 38% 30.04 in 10.0 mi Calm Calm - N/A   Clear
3:53 PM 93.0 °F 95.9 °F 66.0 °F 41% 30.01 in 10.0 mi ENE 6.9 mph - N/A   Partly Cloudy
4:53 PM 95.0 °F 97.9 °F 66.0 °F 38% 29.99 in 10.0 mi Calm Calm - N/A   Partly Cloudy
5:53 PM 93.9 °F 97.0 °F 66.0 °F 40% 29.99 in 10.0 mi East 4.6 mph - N/A   Clear
6:53 PM 93.0 °F 97.9 °F 69.1 °F 45% 29.97 in 10.0 mi East 4.6 mph - N/A   Clear
7:53 PM 88.0 °F 93.8 °F 71.1 °F 57% 29.97 in 10.0 mi East 4.6 mph - N/A   Clear
8:53 PM 84.9 °F 90.7 °F 72.0 °F 65% 29.98 in 10.0 mi ESE 3.5 mph - N/A   Clear
9:53 PM 84.0 °F 89.6 °F 72.0 °F 67% 29.99 in 10.0 mi ESE 5.8 mph - N/A   Clear
10:53 PM 82.9 °F 86.5 °F 69.1 °F 63% 29.99 in 10.0 mi East 3.5 mph - N/A   Clear
11:53 PM 82.0 °F 84.9 °F 68.0 °F 62% 29.98 in 10.0 mi East 4.6 mph - N/A   Clear